Time,TemperatureF,DewpointF,PressureIn,WindDirection,WindDirectionDegrees,WindSpeedMPH,WindSpeedGustMPH,Humidity,HourlyPrecipIn,Conditions,Clouds,dailyrainin,SolarRadiationWatts/m^2,SoftwareType,DateUTC
2013-01-29 00:03:00,27.5,25.2,30.01,SE,128,1.0,1.0,91,0.04,,,0.00,0,Wunderground v.1.15,2013-01-29 05:03:00,
2013-01-29 00:07:00,27.5,25.2,30.01,SE,128,1.0,1.0,91,0.04,,,0.00,0,Wunderground v.1.15,2013-01-29 05:07:00,
2013-01-29 00:17:00,27.5,25.2,30.02,SE,128,0.0,1.0,91,0.00,,,0.00,0,Wunderground v.1.15,2013-01-29 05:17:00,
2013-01-29 00:23:00,27.5,25.2,30.02,SE,128,0.0,0.0,91,0.00,,,0.00,0,Wunderground v.1.15,2013-01-29 05:23:00,
2013-01-29 00:30:00,27.5,25.2,30.03,ESE,117,1.0,1.0,91,0.00,,,0.00,0,Wunderground v.1.15,2013-01-29 05:30:00,
2013-01-29 00:36:00,27.5,25.2,30.02,East,87,1.0,1.0,91,0.00,,,0.00,0,Wunderground v.1.15,2013-01-29 05:36:00,
2013-01-29 00:41:00,27.5,25.2,30.02,East,87,0.0,1.0,91,0.00,,,0.00,0,Wunderground v.1.15,2013-01-29 05:41:00,
2013-01-29 00:46:00,27.5,25.2,30.02,East,87,0.0,1.0,91,0.00,,,0.00,0,Wunderground v.1.15,2013-01-29 05:46:00,
2013-01-29 00:53:00,27.5,25.2,30.02,ENE,66,0.0,3.0,91,0.00,,,0.01,0,Wunderground v.1.15,2013-01-29 05:53:00,
2013-01-29 00:59:00,27.4,25.1,30.02,North,5,2.0,3.0,91,0.00,,,0.01,0,Wunderground v.1.15,2013-01-29 05:59:00,
2013-01-29 01:04:00,27.4,25.1,30.02,North,5,0.0,1.0,91,0.00,,,0.01,0,Wunderground v.1.15,2013-01-29 06:04:00,
2013-01-29 01:11:00,27.4,25.1,30.03,North,5,0.0,1.0,91,0.00,,,0.01,0,Wunderground v.1.15,2013-01-29 06:11:00,
2013-01-29 01:16:00,27.4,25.1,30.03,North,5,0.0,1.0,91,0.00,,,0.01,0,Wunderground v.1.15,2013-01-29 06:16:00,
2013-01-29 01:22:00,27.3,25.0,30.03,North,5,0.0,0.0,91,0.00,,,0.01,0,Wunderground v.1.15,2013-01-29 06:22:00,
2013-01-29 01:27:00,27.3,25.0,30.03,North,5,1.0,1.0,91,0.00,,,0.01,0,Wunderground v.1.15,2013-01-29 06:27:00,
2013-01-29 01:33:00,27.2,24.9,30.04,North,5,1.0,2.0,91,0.00,,,0.01,0,Wunderground v.1.15,2013-01-29 06:33:00,
2013-01-29 01:46:00,27.2,24.9,30.04,North,9,1.0,1.0,91,0.00,,,0.01,0,Wunderground v.1.15,2013-01-29 06:46:00,
2013-01-29 01:52:00,27.1,24.8,30.04,North,355,1.0,1.0,91,0.00,,,0.01,0,Wunderground v.1.15,2013-01-29 06:52:00,
2013-01-29 02:00:00,27.1,24.8,30.05,North,355,0.0,0.0,91,0.00,,,0.01,0,Wunderground v.1.15,2013-01-29 07:00:00,
2013-01-29 02:05:00,27.1,24.8,30.04,North,9,2.0,4.0,91,0.00,,,0.01,0,Wunderground v.1.15,2013-01-29 07:05:00,
2013-01-29 02:10:00,27.1,24.8,30.05,North,9,0.0,1.0,91,0.00,,,0.01,0,Wunderground v.1.15,2013-01-29 07:10:00,
2013-01-29 02:15:00,27.1,24.8,30.05,North,9,1.0,3.0,91,0.00,,,0.01,0,Wunderground v.1.15,2013-01-29 07:15:00,
2013-01-29 02:20:00,27.1,24.8,30.05,North,9,0.0,1.0,91,0.00,,,0.01,0,Wunderground v.1.15,2013-01-29 07:20:00,
2013-01-29 02:25:00,27.1,24.8,30.05,North,9,1.0,3.0,91,0.00,,,0.01,0,Wunderground v.1.15,2013-01-29 07:25:00,
2013-01-29 02:30:00,27.1,24.8,30.05,North,9,0.0,0.0,91,0.00,,,0.01,0,Wunderground v.1.15,2013-01-29 07:30:00,
2013-01-29 02:35:00,27.0,24.7,30.06,North,9,0.0,1.0,91,0.00,,,0.01,0,Wunderground v.1.15,2013-01-29 07:35:00,
2013-01-29 02:40:00,27.0,24.7,30.05,North,10,0.0,0.0,91,0.00,,,0.01,0,Wunderground v.1.15,2013-01-29 07:40:00,
2013-01-29 02:45:00,27.0,24.7,30.05,North,10,0.0,3.0,91,0.00,,,0.01,0,Wunderground v.1.15,2013-01-29 07:45:00,
2013-01-29 02:50:00,27.0,24.7,30.06,North,10,0.0,3.0,91,0.00,,,0.01,0,Wunderground v.1.15,2013-01-29 07:50:00,
2013-01-29 02:55:00,26.9,24.6,30.05,North,9,0.0,3.0,91,0.00,,,0.01,0,Wunderground v.1.15,2013-01-29 07:55:00,
2013-01-29 03:00:00,26.9,24.6,30.05,North,9,0.0,1.0,91,0.00,,,0.01,0,Wunderground v.1.15,2013-01-29 08:00:00,
2013-01-29 03:05:00,26.9,24.6,30.06,North,9,1.0,3.0,91,0.00,,,0.01,0,Wunderground v.1.15,2013-01-29 08:05:00,
2013-01-29 03:10:00,26.8,24.5,30.06,North,9,1.0,4.0,91,0.00,,,0.01,0,Wunderground v.1.15,2013-01-29 08:10:00,
2013-01-29 03:15:00,26.7,24.2,30.06,North,5,0.0,4.0,90,0.00,,,0.01,0,Wunderground v.1.15,2013-01-29 08:15:00,
2013-01-29 03:20:00,26.7,24.4,30.06,North,5,2.0,2.0,91,0.00,,,0.01,0,Wunderground v.1.15,2013-01-29 08:20:00,
2013-01-29 03:25:00,26.6,24.3,30.06,North,5,0.0,2.0,91,0.00,,,0.01,0,Wunderground v.1.15,2013-01-29 08:25:00,
2013-01-29 03:30:00,26.6,24.3,30.06,North,5,0.0,2.0,91,0.00,,,0.01,0,Wunderground v.1.15,2013-01-29 08:30:00,
2013-01-29 03:36:00,26.6,24.3,30.06,North,5,1.0,2.0,91,0.00,,,0.01,0,Wunderground v.1.15,2013-01-29 08:36:00,
2013-01-29 03:41:00,26.5,24.2,30.06,North,5,0.0,1.0,91,0.00,,,0.01,0,Wunderground v.1.15,2013-01-29 08:41:00,
2013-01-29 03:46:00,26.5,24.2,30.06,North,5,1.0,2.0,91,0.00,,,0.01,0,Wunderground v.1.15,2013-01-29 08:46:00,
2013-01-29 03:51:00,26.5,24.2,30.06,North,5,0.0,2.0,91,0.00,,,0.01,0,Wunderground v.1.15,2013-01-29 08:51:00,
2013-01-29 03:56:00,26.5,24.2,30.06,North,5,0.0,2.0,91,0.00,,,0.01,0,Wunderground v.1.15,2013-01-29 08:56:00,
2013-01-29 04:01:00,26.5,24.2,30.06,North,5,1.0,2.0,91,0.00,,,0.01,0,Wunderground v.1.15,2013-01-29 09:01:00,
2013-01-29 04:06:00,26.5,24.2,30.06,North,5,0.0,3.0,91,0.00,,,0.01,0,Wunderground v.1.15,2013-01-29 09:06:00,
2013-01-29 04:11:00,26.5,24.2,30.06,North,5,1.0,2.0,91,0.00,,,0.01,0,Wunderground v.1.15,2013-01-29 09:11:00,
2013-01-29 04:16:00,26.5,24.2,30.07,NE,40,0.0,2.0,91,0.00,,,0.01,0,Wunderground v.1.15,2013-01-29 09:16:00,
2013-01-29 04:21:00,26.4,24.1,30.07,NE,40,0.0,2.0,91,0.00,,,0.01,0,Wunderground v.1.15,2013-01-29 09:21:00,
2013-01-29 04:26:00,26.4,24.1,30.07,NE,40,0.0,2.0,91,0.00,,,0.01,0,Wunderground v.1.15,2013-01-29 09:26:00,
2013-01-29 04:32:00,26.4,24.1,30.07,NE,39,1.0,2.0,91,0.00,,,0.01,0,Wunderground v.1.15,2013-01-29 09:32:00,
2013-01-29 04:37:00,26.4,24.1,30.07,NE,39,1.0,3.0,91,0.00,,,0.01,0,Wunderground v.1.15,2013-01-29 09:37:00,
2013-01-29 04:43:00,26.3,24.0,30.07,NE,38,1.0,2.0,91,0.00,,,0.01,0,Wunderground v.1.15,2013-01-29 09:43:00,
2013-01-29 04:48:00,26.3,23.8,30.08,NNE,23,1.0,4.0,90,0.00,,,0.01,0,Wunderground v.1.15,2013-01-29 09:48:00,
2013-01-29 04:53:00,26.3,23.8,30.07,NNE,15,1.0,4.0,90,0.00,,,0.01,0,Wunderground v.1.15,2013-01-29 09:53:00,
2013-01-29 04:58:00,26.3,23.8,30.07,North,11,2.0,4.0,90,0.00,,,0.01,0,Wunderground v.1.15,2013-01-29 09:58:00,
2013-01-29 05:03:00,26.2,23.7,30.08,North,11,1.0,2.0,90,0.00,,,0.01,0,Wunderground v.1.15,2013-01-29 10:03:00,
2013-01-29 05:08:00,26.2,23.7,30.08,North,11,1.0,2.0,90,0.00,,,0.01,0,Wunderground v.1.15,2013-01-29 10:08:00,
2013-01-29 05:13:00,26.2,23.7,30.08,North,11,0.0,1.0,90,0.00,,,0.01,0,Wunderground v.1.15,2013-01-29 10:13:00,
2013-01-29 05:19:00,26.2,23.7,30.08,North,11,0.0,3.0,90,0.00,,,0.01,0,Wunderground v.1.15,2013-01-29 10:19:00,
2013-01-29 05:24:00,26.1,23.6,30.08,North,11,0.0,3.0,90,0.00,,,0.01,0,Wunderground v.1.15,2013-01-29 10:24:00,
2013-01-29 05:29:00,26.1,23.6,30.09,North,9,0.0,3.0,90,0.00,,,0.01,0,Wunderground v.1.15,2013-01-29 10:29:00,
2013-01-29 05:34:00,26.1,23.6,30.09,North,9,0.0,3.0,90,0.00,,,0.01,0,Wunderground v.1.15,2013-01-29 10:34:00,
2013-01-29 05:39:00,26.1,23.6,30.09,North,5,0.0,3.0,90,0.00,,,0.01,0,Wunderground v.1.15,2013-01-29 10:39:00,
2013-01-29 05:44:00,26.0,23.5,30.09,North,5,0.0,3.0,90,0.00,,,0.01,0,Wunderground v.1.15,2013-01-29 10:44:00,
2013-01-29 05:49:00,26.0,23.5,30.10,North,5,2.0,3.0,90,0.00,,,0.01,0,Wunderground v.1.15,2013-01-29 10:49:00,
2013-01-29 05:54:00,26.0,23.5,30.10,North,5,2.0,3.0,90,0.00,,,0.01,0,Wunderground v.1.15,2013-01-29 10:54:00,
2013-01-29 05:59:00,26.0,23.7,30.10,North,5,1.0,1.0,91,0.00,,,0.01,0,Wunderground v.1.15,2013-01-29 10:59:00,
2013-01-29 06:05:00,26.0,23.7,30.10,North,5,0.0,2.0,91,0.00,,,0.01,0,Wunderground v.1.15,2013-01-29 11:05:00,
2013-01-29 06:10:00,26.0,23.7,30.10,North,5,2.0,2.0,91,0.00,,,0.01,0,Wunderground v.1.15,2013-01-29 11:10:00,
2013-01-29 06:15:00,26.0,23.7,30.10,North,5,0.0,2.0,91,0.00,,,0.01,0,Wunderground v.1.15,2013-01-29 11:15:00,
2013-01-29 06:20:00,26.0,23.7,30.10,North,5,0.0,0.0,91,0.00,,,0.01,0,Wunderground v.1.15,2013-01-29 11:20:00,
2013-01-29 06:25:00,25.9,23.6,30.11,North,5,0.0,0.0,91,0.00,,,0.01,0,Wunderground v.1.15,2013-01-29 11:25:00,
2013-01-29 06:30:00,25.9,23.6,30.11,North,5,0.0,0.0,91,0.00,,,0.01,0,Wunderground v.1.15,2013-01-29 11:30:00,
2013-01-29 06:35:00,25.9,23.6,30.11,North,5,1.0,1.0,91,0.00,,,0.01,0,Wunderground v.1.15,2013-01-29 11:35:00,
2013-01-29 06:40:00,25.9,23.6,30.12,North,5,0.0,1.0,91,0.00,,,0.01,0,Wunderground v.1.15,2013-01-29 11:40:00,
2013-01-29 06:45:00,25.9,23.6,30.12,North,5,0.0,1.0,91,0.00,,,0.01,0,Wunderground v.1.15,2013-01-29 11:45:00,
2013-01-29 06:50:00,25.8,23.5,30.13,North,5,1.0,2.0,91,0.00,,,0.01,0,Wunderground v.1.15,2013-01-29 11:50:00,
2013-01-29 06:55:00,25.8,23.5,30.13,North,9,0.0,2.0,91,0.00,,,0.01,0,Wunderground v.1.15,2013-01-29 11:55:00,
2013-01-29 07:00:00,25.8,23.5,30.13,North,9,0.0,1.0,91,0.00,,,0.01,0,Wunderground v.1.15,2013-01-29 12:00:00,
2013-01-29 07:05:00,25.8,23.3,30.13,North,5,1.0,2.0,90,0.00,,,0.01,0,Wunderground v.1.15,2013-01-29 12:05:00,
2013-01-29 07:10:00,25.8,23.3,30.13,North,5,0.0,1.0,90,0.00,,,0.01,0,Wunderground v.1.15,2013-01-29 12:10:00,
2013-01-29 07:15:00,25.8,23.3,30.13,North,5,2.0,2.0,90,0.00,,,0.01,0,Wunderground v.1.15,2013-01-29 12:15:00,
2013-01-29 07:20:00,25.8,23.3,30.14,WNW,298,3.0,3.0,90,0.00,,,0.01,0,Wunderground v.1.15,2013-01-29 12:20:00,
2013-01-29 07:25:00,25.7,23.2,30.14,WNW,300,0.0,3.0,90,0.00,,,0.01,0,Wunderground v.1.15,2013-01-29 12:25:00,
2013-01-29 07:30:00,25.7,23.2,30.14,WNW,300,0.0,0.0,90,0.00,,,0.01,0,Wunderground v.1.15,2013-01-29 12:30:00,
2013-01-29 07:35:00,25.7,23.2,30.15,WNW,300,0.0,2.0,90,0.00,,,0.01,5,Wunderground v.1.15,2013-01-29 12:35:00,
2013-01-29 07:40:00,25.7,23.2,30.15,WNW,300,1.0,1.0,90,0.00,,,0.01,7,Wunderground v.1.15,2013-01-29 12:40:00,
2013-01-29 07:45:00,25.7,23.2,30.15,WNW,300,0.0,1.0,90,0.00,,,0.01,7,Wunderground v.1.15,2013-01-29 12:45:00,
2013-01-29 07:50:00,25.7,23.2,30.15,WNW,300,0.0,2.0,90,0.00,,,0.01,7,Wunderground v.1.15,2013-01-29 12:50:00,
2013-01-29 07:55:00,25.8,23.3,30.15,WNW,300,0.0,2.0,90,0.00,,,0.01,9,Wunderground v.1.15,2013-01-29 12:55:00,
2013-01-29 08:00:00,25.8,23.3,30.15,WNW,300,0.0,0.0,90,0.00,,,0.01,9,Wunderground v.1.15,2013-01-29 13:00:00,
2013-01-29 08:05:00,25.8,23.3,30.15,WNW,300,0.0,2.0,90,0.00,,,0.01,7,Wunderground v.1.15,2013-01-29 13:05:00,
2013-01-29 08:10:00,25.8,23.3,30.15,WNW,300,0.0,1.0,90,0.00,,,0.01,11,Wunderground v.1.15,2013-01-29 13:10:00,
2013-01-29 08:15:00,25.9,23.4,30.16,WNW,300,1.0,2.0,90,0.00,,,0.01,14,Wunderground v.1.15,2013-01-29 13:15:00,
2013-01-29 08:20:00,26.0,23.5,30.16,WNW,300,1.0,1.0,90,0.00,,,0.01,11,Wunderground v.1.15,2013-01-29 13:20:00,
2013-01-29 08:25:00,26.1,23.6,30.16,WNW,300,1.0,2.0,90,0.00,,,0.01,19,Wunderground v.1.15,2013-01-29 13:25:00,
2013-01-29 08:30:00,26.2,23.7,30.16,WNW,300,3.0,3.0,90,0.00,,,0.01,21,Wunderground v.1.15,2013-01-29 13:30:00,
2013-01-29 08:35:00,26.3,24.0,30.16,NNW,340,2.0,4.0,91,0.00,,,0.01,25,Wunderground v.1.15,2013-01-29 13:35:00,
2013-01-29 08:40:00,26.5,24.2,30.16,NNW,346,0.0,1.0,91,0.00,,,0.01,23,Wunderground v.1.15,2013-01-29 13:40:00,
2013-01-29 08:45:00,26.6,24.3,30.17,NNW,346,2.0,2.0,91,0.00,,,0.01,25,Wunderground v.1.15,2013-01-29 13:45:00,
2013-01-29 08:50:00,26.9,24.6,30.17,NNW,346,0.0,2.0,91,0.00,,,0.01,25,Wunderground v.1.15,2013-01-29 13:50:00,
2013-01-29 08:55:00,27.0,24.5,30.17,NNW,346,0.0,3.0,90,0.00,,,0.01,26,Wunderground v.1.15,2013-01-29 13:55:00,
2013-01-29 09:00:00,27.2,24.9,30.17,NNW,346,1.0,1.0,91,0.00,,,0.01,23,Wunderground v.1.15,2013-01-29 14:00:00,
2013-01-29 09:05:00,27.4,25.1,30.17,NNW,345,1.0,2.0,91,0.00,,,0.01,35,Wunderground v.1.15,2013-01-29 14:05:00,
2013-01-29 09:10:00,27.6,25.3,30.17,NNW,345,1.0,1.0,91,0.00,,,0.01,39,Wunderground v.1.15,2013-01-29 14:10:00,
2013-01-29 09:15:00,27.8,25.2,30.17,NNW,346,0.0,3.0,90,0.00,,,0.01,39,Wunderground v.1.15,2013-01-29 14:15:00,
2013-01-29 09:20:00,28.0,25.4,30.17,NNW,346,0.0,2.0,90,0.00,,,0.01,37,Wunderground v.1.15,2013-01-29 14:20:00,
2013-01-29 09:26:00,28.2,25.6,30.17,NNW,346,0.0,2.0,90,0.00,,,0.01,35,Wunderground v.1.15,2013-01-29 14:26:00,
2013-01-29 09:31:00,28.4,25.8,30.16,NNW,346,3.0,3.0,90,0.00,,,0.01,44,Wunderground v.1.15,2013-01-29 14:31:00,
2013-01-29 09:36:00,28.6,26.0,30.16,NNW,346,0.0,3.0,90,0.00,,,0.01,39,Wunderground v.1.15,2013-01-29 14:36:00,
2013-01-29 09:41:00,28.9,26.3,30.16,NNW,346,0.0,1.0,90,0.00,,,0.01,44,Wunderground v.1.15,2013-01-29 14:41:00,
2013-01-29 09:46:00,29.0,26.4,30.16,NNW,346,1.0,3.0,90,0.00,,,0.01,42,Wunderground v.1.15,2013-01-29 14:46:00,
2013-01-29 09:51:00,29.2,26.6,30.17,North,350,0.0,2.0,90,0.00,,,0.01,42,Wunderground v.1.15,2013-01-29 14:51:00,
2013-01-29 09:56:00,29.4,26.6,30.17,North,350,2.0,3.0,89,0.00,,,0.01,46,Wunderground v.1.15,2013-01-29 14:56:00,
2013-01-29 10:01:00,29.7,26.9,30.17,North,350,0.0,2.0,89,0.00,,,0.01,44,Wunderground v.1.15,2013-01-29 15:01:00,
2013-01-29 10:06:00,29.9,27.1,30.17,North,350,0.0,2.0,89,0.00,,,0.01,46,Wunderground v.1.15,2013-01-29 15:06:00,
2013-01-29 10:11:00,30.1,27.3,30.18,North,350,1.0,1.0,89,0.00,,,0.01,49,Wunderground v.1.15,2013-01-29 15:11:00,
2013-01-29 10:16:00,30.3,27.4,30.18,North,360,1.0,3.0,89,0.00,,,0.01,53,Wunderground v.1.15,2013-01-29 15:16:00,
2013-01-29 10:21:00,30.6,27.7,30.18,North,360,0.0,0.0,89,0.00,,,0.01,54,Wunderground v.1.15,2013-01-29 15:21:00,
2013-01-29 10:26:00,31.0,28.1,30.18,North,360,1.0,3.0,89,0.00,,,0.01,62,Wunderground v.1.15,2013-01-29 15:26:00,
2013-01-29 10:31:00,31.2,28.1,30.18,North,360,0.0,1.0,88,0.00,,,0.01,53,Wunderground v.1.15,2013-01-29 15:31:00,
2013-01-29 10:37:00,31.5,28.4,30.18,North,360,0.0,3.0,88,0.00,,,0.01,62,Wunderground v.1.15,2013-01-29 15:37:00,
2013-01-29 10:43:00,31.9,28.8,30.18,North,360,1.0,1.0,88,0.00,,,0.01,67,Wunderground v.1.15,2013-01-29 15:43:00,
2013-01-29 10:48:00,32.2,28.8,30.18,North,360,0.0,3.0,87,0.00,,,0.01,67,Wunderground v.1.15,2013-01-29 15:48:00,
2013-01-29 10:53:00,32.4,29.0,30.18,North,360,0.0,3.0,87,0.00,,,0.01,84,Wunderground v.1.15,2013-01-29 15:53:00,
2013-01-29 10:58:00,32.5,28.8,30.18,North,360,3.0,3.0,86,0.00,,,0.01,83,Wunderground v.1.15,2013-01-29 15:58:00,
2013-01-29 11:03:00,32.6,28.9,30.18,North,360,1.0,2.0,86,0.00,,,0.01,100,Wunderground v.1.15,2013-01-29 16:03:00,
2013-01-29 11:08:00,32.8,29.1,30.18,North,360,0.0,2.0,86,0.00,,,0.01,93,Wunderground v.1.15,2013-01-29 16:08:00,
2013-01-29 11:13:00,33.0,29.3,30.19,North,360,3.0,3.0,86,0.00,,,0.01,107,Wunderground v.1.15,2013-01-29 16:13:00,
2013-01-29 11:18:00,33.1,29.4,30.18,North,360,0.0,3.0,86,0.00,,,0.01,114,Wunderground v.1.15,2013-01-29 16:18:00,
2013-01-29 11:23:00,33.3,29.6,30.18,North,360,0.0,2.0,86,0.00,,,0.01,123,Wunderground v.1.15,2013-01-29 16:23:00,
2013-01-29 11:28:00,33.4,29.7,30.18,North,360,4.0,4.0,86,0.00,,,0.01,105,Wunderground v.1.15,2013-01-29 16:28:00,
2013-01-29 11:34:00,33.5,29.8,30.18,North,360,0.0,3.0,86,0.00,,,0.01,116,Wunderground v.1.15,2013-01-29 16:34:00,
2013-01-29 11:39:00,33.6,29.9,30.18,North,360,0.0,3.0,86,0.00,,,0.01,102,Wunderground v.1.15,2013-01-29 16:39:00,
2013-01-29 11:44:00,33.7,30.0,30.18,North,360,1.0,2.0,86,0.00,,,0.01,128,Wunderground v.1.15,2013-01-29 16:44:00,
2013-01-29 11:49:00,33.8,30.1,30.17,North,360,0.0,3.0,86,0.00,,,0.01,111,Wunderground v.1.15,2013-01-29 16:49:00,
2013-01-29 11:54:00,33.7,29.7,30.17,North,360,1.0,4.0,85,0.00,,,0.01,118,Wunderground v.1.15,2013-01-29 16:54:00,
2013-01-29 11:59:00,33.7,29.7,30.17,North,5,1.0,4.0,85,0.00,,,0.01,105,Wunderground v.1.15,2013-01-29 16:59:00,
2013-01-29 12:04:00,33.7,30.0,30.17,North,5,0.0,1.0,86,0.00,,,0.01,118,Wunderground v.1.15,2013-01-29 17:04:00,
2013-01-29 12:09:00,33.7,30.0,30.17,North,5,0.0,1.0,86,0.00,,,0.01,107,Wunderground v.1.15,2013-01-29 17:09:00,
2013-01-29 12:14:00,33.7,30.0,30.17,North,5,0.0,2.0,86,0.00,,,0.01,98,Wunderground v.1.15,2013-01-29 17:14:00,
2013-01-29 12:19:00,33.8,30.1,30.17,North,5,1.0,3.0,86,0.00,,,0.01,102,Wunderground v.1.15,2013-01-29 17:19:00,
2013-01-29 12:24:00,33.8,30.1,30.17,North,5,2.0,2.0,86,0.00,,,0.01,93,Wunderground v.1.15,2013-01-29 17:24:00,
2013-01-29 12:29:00,33.8,30.1,30.17,North,5,0.0,2.0,86,0.00,,,0.01,90,Wunderground v.1.15,2013-01-29 17:29:00,
2013-01-29 12:34:00,33.8,30.1,30.17,North,5,0.0,3.0,86,0.00,,,0.01,67,Wunderground v.1.15,2013-01-29 17:34:00,
2013-01-29 12:39:00,33.8,30.1,30.17,North,5,0.0,3.0,86,0.00,,,0.01,76,Wunderground v.1.15,2013-01-29 17:39:00,
2013-01-29 12:44:00,33.8,30.1,30.17,North,5,0.0,2.0,86,0.00,,,0.01,86,Wunderground v.1.15,2013-01-29 17:44:00,
2013-01-29 12:49:00,33.8,30.1,30.17,North,5,0.0,2.0,86,0.00,,,0.01,74,Wunderground v.1.15,2013-01-29 17:49:00,
2013-01-29 12:54:00,33.7,30.0,30.17,North,9,0.0,1.0,86,0.00,,,0.01,97,Wunderground v.1.15,2013-01-29 17:54:00,
2013-01-29 12:59:00,33.8,30.1,30.17,North,5,0.0,1.0,86,0.00,,,0.01,95,Wunderground v.1.15,2013-01-29 17:59:00,
2013-01-29 13:05:00,33.8,30.1,30.17,North,5,0.0,1.0,86,0.00,,,0.01,72,Wunderground v.1.15,2013-01-29 18:05:00,
2013-01-29 13:10:00,33.7,30.0,30.17,North,5,0.0,0.0,86,0.00,,,0.01,76,Wunderground v.1.15,2013-01-29 18:10:00,
2013-01-29 13:15:00,33.7,30.0,30.17,North,5,0.0,1.0,86,0.00,,,0.01,69,Wunderground v.1.15,2013-01-29 18:15:00,
2013-01-29 13:20:00,33.7,30.0,30.16,North,5,0.0,0.0,86,0.00,,,0.01,53,Wunderground v.1.15,2013-01-29 18:20:00,
2013-01-29 13:25:00,33.6,29.9,30.16,North,5,0.0,1.0,86,0.00,,,0.01,54,Wunderground v.1.15,2013-01-29 18:25:00,
2013-01-29 13:30:00,33.5,29.8,30.16,North,5,0.0,0.0,86,0.00,,,0.01,54,Wunderground v.1.15,2013-01-29 18:30:00,
2013-01-29 13:35:00,33.5,30.0,30.17,North,5,0.0,0.0,87,0.00,,,0.01,47,Wunderground v.1.15,2013-01-29 18:35:00,
2013-01-29 13:40:00,33.5,30.0,30.17,North,5,0.0,0.0,87,0.00,,,0.01,42,Wunderground v.1.15,2013-01-29 18:40:00,
2013-01-29 13:45:00,33.5,30.0,30.16,North,5,0.0,1.0,87,0.00,,,0.01,77,Wunderground v.1.15,2013-01-29 18:45:00,
2013-01-29 13:50:00,33.5,30.0,30.16,North,5,0.0,0.0,87,0.00,,,0.01,70,Wunderground v.1.15,2013-01-29 18:50:00,
2013-01-29 13:55:00,33.5,30.0,30.17,North,5,0.0,3.0,87,0.00,,,0.01,69,Wunderground v.1.15,2013-01-29 18:55:00,
2013-01-29 14:00:00,33.5,30.0,30.17,North,5,0.0,0.0,87,0.00,,,0.01,81,Wunderground v.1.15,2013-01-29 19:00:00,
2013-01-29 14:05:00,33.5,30.0,30.17,North,5,0.0,2.0,87,0.00,,,0.01,77,Wunderground v.1.15,2013-01-29 19:05:00,
2013-01-29 14:10:00,33.6,30.1,30.17,North,5,0.0,1.0,87,0.00,,,0.01,91,Wunderground v.1.15,2013-01-29 19:10:00,
2013-01-29 14:15:00,33.7,30.2,30.17,North,5,0.0,1.0,87,0.00,,,0.01,100,Wunderground v.1.15,2013-01-29 19:15:00,
2013-01-29 14:20:00,33.6,30.1,30.17,North,5,0.0,0.0,87,0.00,,,0.01,91,Wunderground v.1.15,2013-01-29 19:20:00,
2013-01-29 14:25:00,33.7,30.5,30.17,North,5,0.0,0.0,88,0.00,,,0.01,67,Wunderground v.1.15,2013-01-29 19:25:00,
2013-01-29 14:30:00,33.7,30.5,30.17,North,5,0.0,0.0,88,0.00,,,0.01,67,Wunderground v.1.15,2013-01-29 19:30:00,
2013-01-29 14:35:00,33.7,30.2,30.17,North,5,0.0,1.0,87,0.00,,,0.01,56,Wunderground v.1.15,2013-01-29 19:35:00,
2013-01-29 14:40:00,33.6,30.1,30.18,North,5,0.0,0.0,87,0.00,,,0.01,40,Wunderground v.1.15,2013-01-29 19:40:00,
2013-01-29 14:45:00,33.5,30.0,30.18,North,5,0.0,0.0,87,0.00,,,0.01,40,Wunderground v.1.15,2013-01-29 19:45:00,
2013-01-29 14:50:00,33.5,30.3,30.18,North,5,0.0,0.0,88,0.00,,,0.01,39,Wunderground v.1.15,2013-01-29 19:50:00,
2013-01-29 14:55:00,33.5,30.3,30.18,North,5,0.0,0.0,88,0.00,,,0.01,33,Wunderground v.1.15,2013-01-29 19:55:00,
2013-01-29 14:58:00,33.5,30.3,30.18,North,5,0.0,0.0,88,0.00,,,0.01,32,Wunderground v.1.15,2013-01-29 19:58:00,
2013-01-29 15:03:00,33.5,30.3,30.18,North,5,0.0,0.0,88,0.00,,,0.01,30,Wunderground v.1.15,2013-01-29 20:03:00,
2013-01-29 15:08:00,33.4,30.2,30.18,North,5,0.0,0.0,88,0.00,,,0.01,30,Wunderground v.1.15,2013-01-29 20:08:00,
2013-01-29 15:13:00,33.4,30.2,30.18,North,5,0.0,0.0,88,0.00,,,0.01,33,Wunderground v.1.15,2013-01-29 20:13:00,
2013-01-29 15:18:00,33.4,30.2,30.17,North,5,0.0,0.0,88,0.00,,,0.01,33,Wunderground v.1.15,2013-01-29 20:18:00,
2013-01-29 15:23:00,33.3,30.1,30.17,North,5,0.0,1.0,88,0.00,,,0.01,28,Wunderground v.1.15,2013-01-29 20:23:00,
2013-01-29 15:28:00,33.2,30.0,30.17,North,5,0.0,1.0,88,0.00,,,0.01,25,Wunderground v.1.15,2013-01-29 20:28:00,
2013-01-29 15:34:00,33.1,29.9,30.17,North,5,0.0,0.0,88,0.00,,,0.01,21,Wunderground v.1.15,2013-01-29 20:34:00,
2013-01-29 15:39:00,33.1,29.9,30.17,North,5,0.0,0.0,88,0.00,,,0.01,21,Wunderground v.1.15,2013-01-29 20:39:00,
2013-01-29 15:44:00,33.1,30.2,30.17,North,5,0.0,0.0,89,0.00,,,0.01,19,Wunderground v.1.15,2013-01-29 20:44:00,
2013-01-29 15:49:00,33.1,29.9,30.17,North,5,0.0,0.0,88,0.00,,,0.01,19,Wunderground v.1.15,2013-01-29 20:49:00,
2013-01-29 15:54:00,33.1,29.9,30.18,North,5,0.0,0.0,88,0.00,,,0.01,16,Wunderground v.1.15,2013-01-29 20:54:00,
2013-01-29 15:59:00,33.1,30.2,30.18,North,5,0.0,1.0,89,0.00,,,0.01,16,Wunderground v.1.15,2013-01-29 20:59:00,
2013-01-29 16:04:00,33.0,30.1,30.18,North,5,0.0,0.0,89,0.00,,,0.01,16,Wunderground v.1.15,2013-01-29 21:04:00,
2013-01-29 16:10:00,33.0,30.1,30.17,North,5,0.0,0.0,89,0.00,,,0.01,12,Wunderground v.1.15,2013-01-29 21:10:00,
2013-01-29 16:15:00,33.0,30.1,30.17,North,5,0.0,0.0,89,0.00,,,0.01,11,Wunderground v.1.15,2013-01-29 21:15:00,
2013-01-29 16:20:00,32.9,30.0,30.17,North,9,1.0,2.0,89,0.00,,,0.01,12,Wunderground v.1.15,2013-01-29 21:20:00,
2013-01-29 16:25:00,32.8,29.9,30.17,North,5,0.0,2.0,89,0.00,,,0.01,11,Wunderground v.1.15,2013-01-29 21:25:00,
2013-01-29 16:30:00,32.8,29.9,30.17,North,5,1.0,1.0,89,0.00,,,0.01,9,Wunderground v.1.15,2013-01-29 21:30:00,
2013-01-29 16:35:00,32.7,29.8,30.17,North,5,0.0,2.0,89,0.00,,,0.01,7,Wunderground v.1.15,2013-01-29 21:35:00,
2013-01-29 16:40:00,32.7,30.1,30.17,North,5,0.0,0.0,90,0.00,,,0.01,0,Wunderground v.1.15,2013-01-29 21:40:00,
2013-01-29 16:45:00,32.7,30.1,30.16,North,5,1.0,1.0,90,0.00,,,0.01,0,Wunderground v.1.15,2013-01-29 21:45:00,
2013-01-29 16:50:00,32.6,30.0,30.17,North,5,0.0,0.0,90,0.00,,,0.01,0,Wunderground v.1.15,2013-01-29 21:50:00,
2013-01-29 16:55:00,32.6,30.0,30.18,North,5,0.0,1.0,90,0.00,,,0.01,0,Wunderground v.1.15,2013-01-29 21:55:00,
2013-01-29 17:00:00,32.6,30.0,30.17,North,5,0.0,0.0,90,0.00,,,0.01,0,Wunderground v.1.15,2013-01-29 22:00:00,
2013-01-29 17:06:00,32.6,30.0,30.17,North,5,0.0,2.0,90,0.00,,,0.01,0,Wunderground v.1.15,2013-01-29 22:06:00,
2013-01-29 17:11:00,32.5,29.9,30.17,North,5,0.0,0.0,90,0.00,,,0.01,0,Wunderground v.1.15,2013-01-29 22:11:00,
2013-01-29 17:16:00,32.5,29.9,30.16,North,5,0.0,2.0,90,0.00,,,0.01,0,Wunderground v.1.15,2013-01-29 22:16:00,
2013-01-29 17:21:00,32.5,29.9,30.16,North,5,0.0,0.0,90,0.00,,,0.01,0,Wunderground v.1.15,2013-01-29 22:21:00,
2013-01-29 17:26:00,32.5,29.9,30.17,North,5,0.0,0.0,90,0.00,,,0.01,0,Wunderground v.1.15,2013-01-29 22:26:00,
2013-01-29 17:31:00,32.4,29.8,30.17,North,5,0.0,1.0,90,0.00,,,0.01,0,Wunderground v.1.15,2013-01-29 22:31:00,
2013-01-29 17:36:00,32.4,29.8,30.17,North,5,0.0,2.0,90,0.00,,,0.01,0,Wunderground v.1.15,2013-01-29 22:36:00,
2013-01-29 17:41:00,32.4,29.8,30.17,North,5,0.0,1.0,90,0.00,,,0.01,0,Wunderground v.1.15,2013-01-29 22:41:00,
2013-01-29 17:46:00,32.4,30.1,30.18,North,5,0.0,1.0,91,0.00,,,0.01,0,Wunderground v.1.15,2013-01-29 22:46:00,
2013-01-29 17:51:00,32.4,29.8,30.18,North,5,0.0,0.0,90,0.00,,,0.01,0,Wunderground v.1.15,2013-01-29 22:51:00,
2013-01-29 17:56:00,32.4,29.8,30.18,North,5,0.0,0.0,90,0.00,,,0.01,0,Wunderground v.1.15,2013-01-29 22:56:00,
2013-01-29 18:01:00,32.4,29.8,30.19,North,5,0.0,0.0,90,0.00,,,0.01,0,Wunderground v.1.15,2013-01-29 23:01:00,
2013-01-29 18:07:00,32.4,29.8,30.19,North,5,0.0,0.0,90,0.00,,,0.01,0,Wunderground v.1.15,2013-01-29 23:07:00,
2013-01-29 18:12:00,32.4,30.1,30.19,North,5,0.0,0.0,91,0.00,,,0.01,0,Wunderground v.1.15,2013-01-29 23:12:00,
2013-01-29 18:17:00,32.4,30.1,30.19,North,5,0.0,1.0,91,0.00,,,0.01,0,Wunderground v.1.15,2013-01-29 23:17:00,
2013-01-29 18:22:00,32.4,30.1,30.19,North,5,0.0,0.0,91,0.00,,,0.01,0,Wunderground v.1.15,2013-01-29 23:22:00,
2013-01-29 18:28:00,32.4,30.1,30.18,North,5,0.0,0.0,91,0.00,,,0.01,0,Wunderground v.1.15,2013-01-29 23:28:00,
2013-01-29 18:33:00,32.4,30.1,30.17,North,5,0.0,0.0,91,0.00,,,0.01,0,Wunderground v.1.15,2013-01-29 23:33:00,
2013-01-29 18:38:00,32.4,30.1,30.19,North,5,1.0,1.0,91,0.00,,,0.01,0,Wunderground v.1.15,2013-01-29 23:38:00,
2013-01-29 18:43:00,32.4,30.1,30.18,North,5,0.0,0.0,91,0.00,,,0.01,0,Wunderground v.1.15,2013-01-29 23:43:00,
2013-01-29 18:48:00,32.4,30.1,30.19,North,5,0.0,0.0,91,0.00,,,0.01,0,Wunderground v.1.15,2013-01-29 23:48:00,
2013-01-29 18:53:00,32.4,30.1,30.20,North,5,0.0,0.0,91,0.00,,,0.01,0,Wunderground v.1.15,2013-01-29 23:53:00,
2013-01-29 18:58:00,32.4,30.1,30.19,North,5,0.0,0.0,91,0.00,,,0.01,0,Wunderground v.1.15,2013-01-29 23:58:00,
2013-01-29 19:03:00,32.4,30.1,30.19,North,5,0.0,0.0,91,0.00,,,0.01,0,Wunderground v.1.15,2013-01-30 00:03:00,
2013-01-29 19:08:00,32.4,30.1,30.18,North,5,0.0,0.0,91,0.00,,,0.01,0,Wunderground v.1.15,2013-01-30 00:08:00,
2013-01-29 19:13:00,32.4,30.1,30.18,North,5,1.0,1.0,91,0.00,,,0.01,0,Wunderground v.1.15,2013-01-30 00:13:00,
2013-01-29 19:18:00,32.3,30.0,30.17,North,5,1.0,2.0,91,0.00,,,0.01,0,Wunderground v.1.15,2013-01-30 00:18:00,
2013-01-29 19:23:00,32.3,30.0,30.18,North,5,2.0,2.0,91,0.00,,,0.01,0,Wunderground v.1.15,2013-01-30 00:23:00,
2013-01-29 19:28:00,32.3,30.0,30.18,North,5,1.0,3.0,91,0.00,,,0.01,0,Wunderground v.1.15,2013-01-30 00:28:00,
2013-01-29 19:34:00,32.3,30.0,30.18,North,5,0.0,1.0,91,0.00,,,0.01,0,Wunderground v.1.15,2013-01-30 00:34:00,
2013-01-29 19:39:00,32.3,30.0,30.18,North,5,0.0,1.0,91,0.00,,,0.01,0,Wunderground v.1.15,2013-01-30 00:39:00,
2013-01-29 19:44:00,32.3,30.0,30.19,North,5,0.0,0.0,91,0.00,,,0.01,0,Wunderground v.1.15,2013-01-30 00:44:00,
2013-01-29 19:49:00,32.3,30.0,30.19,North,5,0.0,0.0,91,0.00,,,0.01,0,Wunderground v.1.15,2013-01-30 00:49:00,
2013-01-29 19:54:00,32.3,30.0,30.20,North,5,0.0,0.0,91,0.00,,,0.01,0,Wunderground v.1.15,2013-01-30 00:54:00,
2013-01-29 19:59:00,32.3,30.0,30.19,North,5,0.0,0.0,91,0.00,,,0.01,0,Wunderground v.1.15,2013-01-30 00:59:00,
2013-01-29 20:04:00,32.3,30.0,30.19,North,5,0.0,0.0,91,0.00,,,0.01,0,Wunderground v.1.15,2013-01-30 01:04:00,
2013-01-29 20:09:00,32.3,30.0,30.19,North,5,2.0,2.0,91,0.00,,,0.01,0,Wunderground v.1.15,2013-01-30 01:09:00,
2013-01-29 20:14:00,32.3,30.2,30.18,North,5,1.0,2.0,92,0.00,,,0.01,0,Wunderground v.1.15,2013-01-30 01:14:00,
2013-01-29 20:19:00,32.3,30.2,30.18,North,5,0.0,2.0,92,0.00,,,0.01,0,Wunderground v.1.15,2013-01-30 01:19:00,
2013-01-29 20:24:00,32.3,30.2,30.18,North,5,0.0,1.0,92,0.00,,,0.01,0,Wunderground v.1.15,2013-01-30 01:24:00,
2013-01-29 20:29:00,32.3,30.2,30.19,North,5,0.0,1.0,92,0.00,,,0.01,0,Wunderground v.1.15,2013-01-30 01:29:00,
2013-01-29 20:34:00,32.3,30.2,30.20,North,5,0.0,2.0,92,0.00,,,0.01,0,Wunderground v.1.15,2013-01-30 01:34:00,
2013-01-29 20:39:00,32.3,30.2,30.20,North,5,1.0,3.0,92,0.00,,,0.01,0,Wunderground v.1.15,2013-01-30 01:39:00,
2013-01-29 20:44:00,32.3,30.2,30.20,North,5,0.0,2.0,92,0.00,,,0.01,0,Wunderground v.1.15,2013-01-30 01:44:00,
2013-01-29 20:49:00,32.4,30.3,30.20,North,5,0.0,2.0,92,0.00,,,0.01,0,Wunderground v.1.15,2013-01-30 01:49:00,
2013-01-29 20:54:00,32.4,30.3,30.20,North,5,0.0,0.0,92,0.00,,,0.01,0,Wunderground v.1.15,2013-01-30 01:54:00,
2013-01-29 20:59:00,32.4,30.3,30.20,North,5,0.0,0.0,92,0.00,,,0.01,0,Wunderground v.1.15,2013-01-30 01:59:00,
2013-01-29 21:04:00,32.4,30.3,30.20,North,5,0.0,0.0,92,0.00,,,0.01,0,Wunderground v.1.15,2013-01-30 02:04:00,
2013-01-29 21:09:00,32.5,30.4,30.20,North,5,0.0,0.0,92,0.00,,,0.01,0,Wunderground v.1.15,2013-01-30 02:09:00,
2013-01-29 21:14:00,32.5,30.4,30.19,North,5,0.0,0.0,92,0.00,,,0.01,0,Wunderground v.1.15,2013-01-30 02:14:00,
2013-01-29 21:19:00,32.5,30.4,30.18,North,5,0.0,1.0,92,0.00,,,0.01,0,Wunderground v.1.15,2013-01-30 02:19:00,
2013-01-29 21:25:00,32.5,30.4,30.17,North,5,0.0,1.0,92,0.00,,,0.01,0,Wunderground v.1.15,2013-01-30 02:25:00,
2013-01-29 21:30:00,32.5,30.4,30.17,North,5,1.0,1.0,92,0.00,,,0.01,0,Wunderground v.1.15,2013-01-30 02:30:00,
2013-01-29 21:35:00,32.5,30.4,30.17,North,5,1.0,2.0,92,0.00,,,0.01,0,Wunderground v.1.15,2013-01-30 02:35:00,
2013-01-29 21:40:00,32.5,30.4,30.17,North,5,0.0,1.0,92,0.00,,,0.01,0,Wunderground v.1.15,2013-01-30 02:40:00,
2013-01-29 21:45:00,32.6,30.5,30.17,North,5,0.0,2.0,92,0.00,,,0.02,0,Wunderground v.1.15,2013-01-30 02:45:00,
2013-01-29 21:50:00,32.6,30.5,30.16,North,5,1.0,1.0,92,0.00,,,0.02,0,Wunderground v.1.15,2013-01-30 02:50:00,
2013-01-29 21:55:00,32.6,30.5,30.17,North,5,0.0,1.0,92,0.00,,,0.02,0,Wunderground v.1.15,2013-01-30 02:55:00,
2013-01-29 22:00:00,32.6,30.5,30.17,North,5,0.0,0.0,92,0.00,,,0.02,0,Wunderground v.1.15,2013-01-30 03:00:00,
2013-01-29 22:05:00,32.6,30.5,30.17,North,5,0.0,0.0,92,0.00,,,0.02,0,Wunderground v.1.15,2013-01-30 03:05:00,
2013-01-29 22:10:00,32.6,30.5,30.17,North,5,0.0,0.0,92,0.00,,,0.02,0,Wunderground v.1.15,2013-01-30 03:10:00,
2013-01-29 22:15:00,32.6,30.5,30.16,North,5,0.0,1.0,92,0.00,,,0.03,0,Wunderground v.1.15,2013-01-30 03:15:00,
2013-01-29 22:20:00,32.6,30.5,30.16,North,5,0.0,0.0,92,0.00,,,0.03,0,Wunderground v.1.15,2013-01-30 03:20:00,
2013-01-29 22:25:00,32.6,30.5,30.16,North,5,0.0,0.0,92,0.00,,,0.03,0,Wunderground v.1.15,2013-01-30 03:25:00,
2013-01-29 22:30:00,32.6,30.5,30.15,North,5,1.0,2.0,92,0.00,,,0.03,0,Wunderground v.1.15,2013-01-30 03:30:00,
2013-01-29 22:35:00,32.6,30.5,30.15,North,5,2.0,2.0,92,0.00,,,0.03,0,Wunderground v.1.15,2013-01-30 03:35:00,
2013-01-29 22:40:00,32.6,30.5,30.15,North,5,1.0,2.0,92,0.00,,,0.03,0,Wunderground v.1.15,2013-01-30 03:40:00,
2013-01-29 22:45:00,32.6,30.5,30.15,North,5,2.0,2.0,92,0.00,,,0.03,0,Wunderground v.1.15,2013-01-30 03:45:00,
2013-01-29 22:50:00,32.6,30.5,30.15,North,5,0.0,1.0,92,0.00,,,0.03,0,Wunderground v.1.15,2013-01-30 03:50:00,
2013-01-29 22:55:00,32.6,30.5,30.15,North,5,1.0,2.0,92,0.00,,,0.03,0,Wunderground v.1.15,2013-01-30 03:55:00,
2013-01-29 23:00:00,32.6,30.5,30.15,North,5,0.0,1.0,92,0.00,,,0.03,0,Wunderground v.1.15,2013-01-30 04:00:00,
2013-01-29 23:05:00,32.6,30.5,30.15,North,5,0.0,1.0,92,0.00,,,0.03,0,Wunderground v.1.15,2013-01-30 04:05:00,
2013-01-29 23:11:00,32.6,30.5,30.15,North,5,1.0,2.0,92,0.00,,,0.03,0,Wunderground v.1.15,2013-01-30 04:11:00,
2013-01-29 23:16:00,32.6,30.8,30.15,North,5,1.0,2.0,93,0.00,,,0.03,0,Wunderground v.1.15,2013-01-30 04:16:00,
2013-01-29 23:21:00,32.6,30.5,30.15,North,5,0.0,1.0,92,0.00,,,0.03,0,Wunderground v.1.15,2013-01-30 04:21:00,
2013-01-29 23:26:00,32.6,30.5,30.15,North,5,2.0,2.0,92,0.00,,,0.03,0,Wunderground v.1.15,2013-01-30 04:26:00,
2013-01-29 23:31:00,32.6,30.5,30.16,North,5,0.0,1.0,92,0.00,,,0.03,0,Wunderground v.1.15,2013-01-30 04:31:00,
2013-01-29 23:36:00,32.6,30.8,30.16,North,5,0.0,1.0,93,0.00,,,0.03,0,Wunderground v.1.15,2013-01-30 04:36:00,
2013-01-29 23:41:00,32.6,30.8,30.16,North,5,0.0,0.0,93,0.00,,,0.04,0,Wunderground v.1.15,2013-01-30 04:41:00,
2013-01-29 23:46:00,32.6,30.8,30.16,North,5,0.0,0.0,93,0.00,,,0.04,0,Wunderground v.1.15,2013-01-30 04:46:00,
2013-01-29 23:51:00,32.6,30.8,30.16,North,5,0.0,0.0,93,0.00,,,0.04,0,Wunderground v.1.15,2013-01-30 04:51:00,
2013-01-29 23:56:00,32.6,30.8,30.16,North,5,0.0,0.0,93,0.00,,,0.04,0,Wunderground v.1.15,2013-01-30 04:56:00,